Home   Weather   Brest   Past weeks

Flag for France Past Weather in Brest, Brittany, France — Yesterday and Last 2 Weeks

Now
36 °F

Passing clouds.


Feels Like: 30 °F
Forecast: 37 / 51 °F
Wind: 7 mph from East

Location: Brest Airport

Current Time: Dec 3, 2016 at 5:54:52 am

Latest Report: Dec 3, 2016 at 5:30 am


Visibility: N/A

Pressure: 30.09 "Hg

Humidity: 87%

Dew Point: 32 °F

Location of BrestLocation

Past Weather in Brest — Graph

°F

Brest Temperature Yesterday

Maximum temperature yesterday: 50 °F (at 1:30 pm)
Minimum temperature yesterday: 34 °F (at 12:00 am)
Average temperature yesterday: 40 °F

High & Low Weather Summary for the Past Weeks

 TemperatureHumidityPressure
High55 °F (Nov 19, 9:30 pm)100% (Nov 19, 9:00 pm)30.51 "Hg (Nov 19, 9:00 pm)
Low27 °F (Nov 30, 4:30 am)50% (Nov 28, 2:30 pm)28.91 "Hg (Nov 19, 11:30 pm)
Average45 °F84%29.90 "Hg
* Reported Nov 18 4:00 am — Dec 3 4:30 am, Brest, Weather by CustomWeather, © 2016

Note: Actual official high and low records may vary slightly from our data, if they occured in-between our weather recording intervals... More about our weather records

Advertising

Brest Weather History for the Previous 24 Hours

Scroll right to see more
 ConditionsComfort  
Time TempWeatherWind HumidityBarometerVisibility
4:30 am
Sat, Dec 3
36 °FClear.7 mph87%30.09 "Hg10 mi
4:00 am36 °FClear.9 mph87%30.12 "Hg10 mi
3:30 am34 °FClear.8 mph93%30.12 "Hg10 mi
3:00 am34 °FClear.10 mph93%30.12 "Hg6 mi
2:30 am36 °FClear.9 mph87%30.12 "Hg5 mi
2:00 am36 °FClear.8 mph87%30.15 "Hg5 mi
1:30 am36 °FClear.8 mph87%30.15 "Hg5 mi
1:00 am36 °FClear.9 mph87%30.15 "Hg5 mi
12:30 am36 °FClear.9 mph93%30.15 "Hg4 mi
12:00 am36 °FClear.9 mph87%30.15 "Hg4 mi
11:30 pm
Fri, Dec 2
36 °FClear.7 mph87%30.15 "Hg4 mi
11:00 pm36 °FPassing clouds.7 mph87%30.15 "Hg5 mi
10:30 pm36 °FClear.5 mph87%30.15 "Hg10 mi
10:00 pm37 °FClear.7 mph87%30.15 "Hg10 mi
9:30 pm39 °FClear.9 mph81%30.15 "Hg10 mi
9:00 pm39 °FClear.12 mph81%30.15 "Hg10 mi
8:30 pm39 °FClear.12 mph81%30.18 "Hg10 mi
8:00 pm39 °FClear.12 mph81%30.18 "Hg10 mi
7:30 pm39 °FClear.10 mph81%30.18 "Hg10 mi
7:00 pm41 °FClear.10 mph81%30.15 "Hg10 mi
6:30 pm41 °FClear.9 mph81%30.15 "Hg10 mi
6:00 pm43 °FClear.9 mph76%30.18 "Hg10 mi
5:30 pm43 °FClear.9 mph81%30.15 "Hg10 mi
5:00 pm45 °FSunny.10 mph76%30.15 "Hg10 mi
4:30 pm46 °FSunny.13 mph71%30.18 "Hg10 mi
4:00 pm48 °FSunny.14 mph71%30.18 "Hg10 mi
3:30 pm48 °FSunny.15 mph71%30.18 "Hg10 mi
3:00 pm50 °FSunny.14 mph71%30.18 "Hg10 mi
2:30 pm50 °FSunny.13 mph71%30.18 "Hg10 mi
2:00 pm50 °FSunny.13 mph71%30.21 "Hg10 mi
1:30 pm50 °FSunny.12 mph67%30.21 "Hg10 mi
1:00 pm48 °FSunny.10 mph76%30.21 "Hg10 mi
12:30 pm48 °FPassing clouds.7 mph71%30.21 "HgN/A
12:00 pm46 °FSunny.8 mph76%30.24 "Hg10 mi
11:30 am45 °FClear.8 mph81%30.24 "Hg6 mi
11:00 am41 °FFog.9 mph93%30.24 "Hg3 mi
10:30 am39 °FFog.7 mph93%30.24 "Hg2 mi
10:00 am37 °FLight fog.3 mph93%30.24 "Hg1 mi
9:30 am36 °FFog.5 mph93%30.24 "Hg1 mi
9:00 am36 °FLight fog.3 mph93%30.24 "Hg1 mi
8:30 am36 °FFog.3 mph93%30.24 "Hg2 mi
8:00 am36 °FFog.9 mph100%30.27 "Hg2 mi
7:30 am37 °FFog.9 mph93%30.27 "Hg2 mi
7:00 am37 °FFog.9 mph93%30.27 "Hg3 mi
6:30 am37 °FFog.8 mph93%30.27 "Hg3 mi
6:00 am37 °FClear.7 mph100%30.27 "Hg4 mi
5:30 am37 °FClear.10 mph100%30.27 "Hg4 mi
5:00 am37 °FClear.9 mph93%30.27 "Hg4 mi
Weather by CustomWeather, © 2016

See weather overviewHow to use our weather pages